Simultaneous Nadir Overpasses (SNOs) Predictions

Prediction of SNOs between LANDSAT-8 and NOAA-19 Satellite Orbit:

Table of predicted SNOs for the next 14.0 days since TLE Epoch: 10/9/2015
Index Date (LANDSAT-8) Time (LANDSAT-8) Lat,Lon (LANDSAT-8) SZA (LANDSAT-8 ) Date (NOAA-19) Time (NOAA-19) Lat,Lon (NOAA-19) SZA (NOAA-19 ) Distance(km) Time Diff (sec)
1 10/10/2015 20:45:27 -73.73, 51.21 99.52 10/10/2015 20:44:40 -73.73, 51.10 99.52 3.59 47
2 10/10/2015 21:34:55 73.59,-141.44 80.36 10/10/2015 21:35:44 73.61,-141.38 80.38 2.76 49
3 10/13/2015 02:19:11 73.66, 147.63 81.25 10/13/2015 02:19:01 73.68, 147.67 81.28 3.02 10
4 10/13/2015 03:08:41 -73.54, -44.99 98.87 10/13/2015 03:09:54 -73.55, -44.74 98.83 8.15 73
5 10/15/2015 07:03:26 73.77, 76.80 82.19 10/15/2015 07:02:18 73.75, 76.72 82.17 2.98 68
6 10/15/2015 07:52:56 -73.65,-115.82 97.93 10/15/2015 07:53:11 -73.64,-115.72 97.93 3.44 15
7 10/17/2015 12:37:12 -73.70, 173.23 97.05 10/17/2015 12:36:28 -73.72, 173.29 97.04 2.88 44
8 10/17/2015 13:26:39 73.61, -19.32 82.87 10/17/2015 13:27:33 73.62, -19.23 82.88 2.86 54
9 10/19/2015 18:10:54 73.71, -90.17 83.78 10/19/2015 18:10:50 73.70, -90.21 83.76 1.96 4
10 10/19/2015 19:00:28 -73.39, 76.78 96.56 10/19/2015 19:01:39 -73.40, 77.78 96.51 31.92 71
11 10/21/2015 22:55:10 73.76,-161.14 84.61 10/21/2015 22:54:06 73.74,-161.09 84.59 2.36 64
12 10/21/2015 23:44:39 -73.70, 6.36 95.45 10/21/2015 23:45:00 -73.69, 6.31 95.45 1.63 21




NCC Satellite Simultaneous Nadir Overpasses (SNOs) Prediction Service
